Location: Allen Fire Department Station 4
(33.1073°N, 96.6988°W)
Time: 11:40:45
(UTC+00:00)

Cosmos 1697 Rocket - Pass Details

Date: 03 December 2021
Orbit: 833 x 843 km, 71.0° (Epoch: 23 January)

Event Time Altitude Azimuth Distance (km) Brightness Sun altitude
Rises 23:45:30 0° 347° (NNW) 3,383 5.7 -5.8°
Reaches altitude 10° 23:48:05 10° 354° (N) 2,447 4.9 -6.3°
Maximum altitude 23:53:23 42° 65° (ENE) 1,176 3.0 -7.3°
Drops below altitude 10° 23:58:39 10° 136° (SE) 2,440 4.9 -8.3°
Sets 00:01:13 0° 143° (SE) 3,372 5.7 -8.8°
